[[{"header":{"parameterUnit":"m.s-1","parameterCategory":1,"la1":30.2991,"la2":30.254,"lo1":-89.0895,"lo2":-89.0444,"dy":0.0017,"dx":0.0017,"nx":28,"ny":28,"refTime":"2024-04-02T03:00:00:Z","depth":0,"parameterNumber":2,"parameterNumberName":"U-component_of_WINDS"},"data":[0,0,0,0,0,0,0,0,0,0,0,0,0,0,0,0,0,0,0,0,0,0,0,0,0,0,0,0,0,0,0,0,0,0,0,0,0,0,0,0,0,0,0,0,0,0,0,0,0,0,0,0,0,0,0,0,0,0,6.3566,6.3567,0,6.3675,6.3676,6.3677,6.3636,6.3633,6.3631,6.3628,6.3737,6.3742,6.3747,0,0,0,0,0,0,0,0,0,0,0,0,0,6.3321,6.3326,6.3565,6.3567,6.3568,6.3674,6.3676,6.3677,6.3636,6.3633,6.363,6.3627,6.3735,6.3742,6.3748,0,0,0,0,0,0,0,0,0,0,0,0,0,6.3429,6.3328,6.3565,6.3561,6.3561,6.3674,6.3676,6.3678,6.3637,6.3633,6.3629,6.3626,6.3733,6.3741,6.3749,6.3872,0,0,6.3773,6.3776,0,0,0,0,0,0,0,0,6.3423,6.3438,6.356,6.3561,6.3562,6.3638,6.363,6.3743,6.3638,6.3608,6.3628,6.3624,6.3707,6.3717,6.3745,6.3877,6.3882,6.3773,6.3778,6.3781,6.3784,0,0,0,0,0,0,0,6.3415,6.3433,6.3608,6.3562,6.3563,6.3553,6.3564,6.3651,6.3677,6.361,6.3608,6.3621,6.3707,6.3738,6.3748,6.3883,6.3773,6.378,6.3785,6.3788,6.4125,6.4129,0,0,0,0,0,0,6.3408,6.3427,6.3605,6.3612,6.3482,6.356,6.3573,6.3617,6.3676,6.3681,6.3624,6.3619,6.3726,6.3738,6.3751,6.3901,6.3781,6.3789,6.3793,6.4121,6.4126,6.413,0,0,0,0,0,0,6.3402,6.3424,6.3601,6.3519,6.354,6.3569,6.3619,6.3621,6.3652,6.3687,6.3691,6.3651,6.3724,6.374,6.3843,6.3904,6.3792,6.3799,6.4116,6.4122,6.4128,6.4201,0,0,0,0,0,0,6.3396,6.3422,6.3469,6.352,6.3545,6.3691,6.3623,6.3626,6.3666,6.366,6.3713,6.3718,6.3722,6.3832,6.3851,6.3913,6.3806,6.411,6.4118,6.4126,6.4193,6.4209,6.4222,0,0,0,0,0,6.3387,6.3484,6.3472,6.3493,6.3604,6.3694,6.3709,6.3712,6.3671,6.3719,6.3742,6.3716,6.3895,6.3843,6.3864,6.3929,6.4106,6.4116,6.4125,6.4186,6.4206,6.4222,0,0,0,0,0,0,6.3437,6.349,6.3477,6.3594,6.364,6.3687,6.3747,6.3732,6.379,6.3782,6.3783,6.3795,6.3902,6.3926,6.3867,6.4053,6.3994,6.4009,6.4033,6.4052,6.4066,6.4058,6.3812,0,0,0,0,0,6.3462,6.3532,6.3574,6.3673,6.3697,6.3719,6.3758,6.3757,6.3805,6.3824,6.3854,6.39,6.3967,6.4011,6.4074,6.4197,6.4208,6.4252,6.4267,6.4279,6.4291,6.436,6.4381,6.4162,6.4162,6.4161,0,0,6.3514,6.3551,6.3595,6.3684,6.372,6.3792,6.3735,6.3813,6.3866,6.3835,6.3935,6.3959,6.4011,6.4126,6.4177,6.4149,6.4355,6.4291,6.43,6.4306,6.4372,6.4393,6.4411,6.4168,6.4167,6.4166,0,0,6.3645,6.368,6.3767,6.3805,6.3861,6.3876,6.3897,6.3947,6.3963,6.4063,6.4042,6.4106,6.422,6.426,6.4294,6.4445,6.4425,6.4466,6.4542,6.4609,6.4626,6.4642,6.4697,6.4716,6.4478,6.4478,6.4478,0,6.3701,6.3809,6.3813,6.3895,6.3935,6.3912,6.4001,6.4038,6.4111,6.414,6.4107,6.4253,6.4286,6.441,6.4448,6.4476,6.4501,6.4459,6.4624,6.4639,6.4653,6.4706,6.4726,6.4482,6.4482,6.4481,6.4481,0,6.3877,6.3953,6.4017,6.4091,6.4138,6.4223,6.424,6.4288,6.4284,6.4302,6.4406,6.4446,6.4518,6.4548,6.4544,6.4673,6.4653,6.4623,6.4563,6.4679,6.4728,6.4748,6.4489,6.4487,6.4486,6.4485,0,0,6.404,6.4118,6.4141,6.4176,6.4238,6.4296,6.4381,6.4453,6.4495,6.4547,6.4618,6.4718,6.4691,6.4731,6.4731,6.479,6.4909,6.4752,6.4754,6.4781,6.5056,6.5079,6.5102,6.4897,6.4901,6.4904,6.5052,0,6.4177,6.4326,6.4333,6.4469,6.454,6.4521,6.4595,6.4641,6.4661,6.4725,6.4746,6.4817,6.4775,6.48,6.4858,6.4882,6.4964,6.4872,6.4963,6.4967,6.4951,6.5127,6.5151,6.5289,6.5071,6.5074,6.5076,0,6.4355,6.4416,6.4559,6.4614,6.4644,6.471,6.4778,6.4839,6.4892,6.4902,6.4949,6.4942,6.503,6.4969,6.509,6.5027,6.5065,6.5083,6.5089,6.5097,6.5028,6.5141,6.5332,6.5353,6.5106,6.5104,6.5102,0,6.4461,6.4578,6.468,6.4709,6.4776,6.4823,6.4853,6.4902,6.4946,6.5006,6.5035,6.5104,6.5142,6.5195,6.5208,6.5162,6.533,6.5269,6.5341,6.5341,6.5376,6.5374,6.5577,6.5401,6.5401,6.54,6.54,0,6.4613,6.4701,6.4729,6.4791,6.489,6.4899,6.4997,6.5023,6.5068,6.5136,6.5124,6.5187,6.52,6.5267,6.5277,6.5376,6.5393,6.5405,6.5406,6.5406,6.5405,6.543,6.5421,6.5406,6.5405,6.5404,6.5403,0,6.4747,6.4769,6.4879,6.4934,6.495,6.5021,6.5068,6.5128,6.5148,6.5234,6.5254,6.5286,6.5364,6.5382,6.5474,6.5481,6.56,6.5592,6.5582,6.5582,6.5653,6.5646,6.588,6.5912,6.5715,6.5716,6.5718,0,6.4842,6.491,6.4974,6.5019,6.5052,6.5124,6.517,6.5182,6.523,6.5298,6.5351,6.5428,6.549,6.5616,6.5647,6.5718,6.5712,6.5789,6.5722,6.5721,6.5714,6.571,6.5718,6.5801,6.5804,6.5805,6.5807,0,6.501,6.5018,6.5085,6.5157,6.5213,6.5269,6.5323,6.5361,6.5381,6.5436,6.5517,6.5565,6.5661,6.5738,6.5811,6.5841,6.5828,6.5828,6.5849,6.5848,6.584,6.5847,6.5617,6.5822,6.582,6.5819,6.5819,6.5818,6.5128,6.5189,6.5244,6.532,6.5362,6.5414,6.5474,6.5503,6.5571,6.5651,6.5654,6.5743,6.5797,6.5893,6.5928,6.5998,6.5974,6.6003,6.6011,6.6018,6.6025,6.583,6.6011,6.601,6.601,6.6009,6.6009,0,6.5295,6.5331,6.5401,6.5478,6.5538,6.5523,6.5583,6.5634,6.5712,6.5764,6.5827,6.5921,6.5997,6.6035,6.611,6.6159,6.6155,6.6178,6.6174,6.6182,6.6041,6.6016,6.618,6.618,6.618,6.618,6.618,6.618,6.539,6.5492,6.5508,6.5632,6.5667,6.5754,6.579,6.5839,6.588,6.5987,6.605,6.6075,6.6122,6.6201,6.6271,6.628,6.6308,6.6335,6.6342,6.6209,6.6192,6.6175,6.6152,6.6341,6.6341,6.6477,6.6478,6.6479]},{"header":{"parameterUnit":"m.s-1","parameterCategory":1,"la1":30.2991,"la2":30.254,"lo1":-89.0895,"lo2":-89.0444,"dy":0.0017,"dx":0.0017,"nx":28,"ny":28,"refTime":"2024-04-02T03:00:00:Z","depth":0,"parameterNumber":3,"parameterNumberName":"V-component_of_WINDS"},"data":[0,0,0,0,0,0,0,0,0,0,0,0,0,0,0,0,0,0,0,0,0,0,0,0,0,0,0,0,0,0,0,0,0,0,0,0,0,0,0,0,0,0,0,0,0,0,0,0,0,0,0,0,0,0,0,0,0,0,-5.6822,-5.6823,0,-5.6949,-5.695,-5.6951,-5.6925,-5.6923,-5.6921,-5.6919,-5.7046,-5.7051,-5.7057,0,0,0,0,0,0,0,0,0,0,0,0,0,-5.6556,-5.6561,-5.6822,-5.6823,-5.6825,-5.6948,-5.695,-5.6952,-5.6926,-5.6923,-5.692,-5.6918,-5.7044,-5.7051,-5.7057,0,0,0,0,0,0,0,0,0,0,0,0,0,-5.6676,-5.6563,-5.6821,-5.6827,-5.6829,-5.6948,-5.695,-5.6952,-5.6926,-5.6923,-5.6919,-5.6916,-5.7042,-5.705,-5.7058,-5.7179,0,0,-5.7084,-5.7087,0,0,0,0,0,0,0,0,-5.6669,-5.6686,-5.6824,-5.6827,-5.6829,-5.6918,-5.6903,-5.7028,-5.6927,-5.6889,-5.6919,-5.6915,-5.7006,-5.7017,-5.7048,-5.7185,-5.719,-5.7084,-5.7089,-5.7093,-5.7095,0,0,0,0,0,0,0,-5.6661,-5.668,-5.6872,-5.6826,-5.6829,-5.6823,-5.6836,-5.6927,-5.6965,-5.6892,-5.6891,-5.6906,-5.7006,-5.704,-5.7051,-5.7192,-5.7084,-5.7091,-5.7097,-5.71,-5.7437,-5.7441,0,0,0,0,0,0,-5.6651,-5.6673,-5.6868,-5.6876,-5.6739,-5.683,-5.6845,-5.6893,-5.6964,-5.6972,-5.6909,-5.6905,-5.7028,-5.7041,-5.7055,-5.7203,-5.7093,-5.7101,-5.7105,-5.7433,-5.7438,-5.7442,0,0,0,0,0,0,-5.6645,-5.6668,-5.6863,-5.6774,-5.6798,-5.6839,-5.6892,-5.6897,-5.6931,-5.6977,-5.6984,-5.6937,-5.7026,-5.7044,-5.7149,-5.7207,-5.7104,-5.7112,-5.7428,-5.7434,-5.744,-5.7499,0,0,0,0,0,0,-5.6638,-5.6667,-5.6713,-5.6775,-5.6803,-5.6955,-5.6896,-5.6902,-5.6946,-5.6941,-5.7005,-5.7012,-5.7024,-5.7137,-5.7157,-5.7217,-5.7118,-5.7423,-5.7431,-5.7438,-5.7492,-5.7506,-5.7518,0,0,0,0,0,-5.6628,-5.6724,-5.6716,-5.6739,-5.6862,-5.6958,-5.6974,-5.6987,-5.695,-5.6998,-5.7028,-5.701,-5.7198,-5.7148,-5.7171,-5.7234,-5.742,-5.7429,-5.7437,-5.7486,-5.7503,-5.7518,0,0,0,0,0,0,-5.6666,-5.6732,-5.6724,-5.6842,-5.6895,-5.6954,-5.7013,-5.7005,-5.7068,-5.7061,-5.7073,-5.7088,-5.7196,-5.7225,-5.7169,-5.7355,-5.7303,-5.7317,-5.7333,-5.7349,-5.7362,-5.7353,-5.7125,0,0,0,0,0,-5.6688,-5.6761,-5.6814,-5.6914,-5.6941,-5.6973,-5.7015,-5.7021,-5.7075,-5.7097,-5.7135,-5.7188,-5.7259,-5.7306,-5.7374,-5.7496,-5.751,-5.7551,-5.7564,-5.7574,-5.7586,-5.7655,-5.7674,-5.7471,-5.7471,-5.7471,0,0,-5.6734,-5.6779,-5.6824,-5.6922,-5.6964,-5.7039,-5.6992,-5.7072,-5.7129,-5.7109,-5.7212,-5.7242,-5.7302,-5.7417,-5.747,-5.7445,-5.7646,-5.7586,-5.7594,-5.76,-5.7666,-5.7685,-5.7702,-5.7477,-5.7476,-5.7475,0,0,-5.6857,-5.6898,-5.6986,-5.703,-5.7094,-5.7115,-5.7136,-5.7197,-5.7217,-5.732,-5.7308,-5.7374,-5.7496,-5.754,-5.7578,-5.7721,-5.7707,-5.7742,-5.7811,-5.7878,-5.7894,-5.7908,-5.796,-5.7979,-5.7754,-5.7754,-5.7754,0,-5.6906,-5.702,-5.7032,-5.7116,-5.716,-5.7147,-5.7237,-5.7278,-5.7361,-5.7391,-5.7363,-5.7517,-5.7556,-5.7683,-5.7718,-5.7749,-5.7774,-5.7735,-5.7891,-5.7905,-5.7919,-5.7968,-5.7988,-5.7758,-5.7758,-5.7757,-5.7757,0,-5.7078,-5.7157,-5.722,-5.7302,-5.7353,-5.7439,-5.7465,-5.7515,-5.7517,-5.7541,-5.7647,-5.7695,-5.7773,-5.7803,-5.7805,-5.793,-5.7913,-5.7888,-5.7836,-5.7942,-5.7989,-5.8008,-5.7764,-5.7762,-5.7761,-5.776,0,0,-5.7227,-5.7316,-5.734,-5.7378,-5.7448,-5.751,-5.7595,-5.7673,-5.7717,-5.7774,-5.7847,-5.7952,-5.7929,-5.7973,-5.7979,-5.8038,-5.8149,-5.8005,-5.8007,-5.8031,-5.8292,-5.8312,-5.8334,-5.8141,-5.8145,-5.8148,-5.8288,0,-5.7357,-5.751,-5.7525,-5.7661,-5.7735,-5.7725,-5.78,-5.7852,-5.7877,-5.7943,-5.797,-5.8045,-5.8008,-5.8035,-5.8093,-5.8124,-5.8202,-5.8114,-5.8209,-5.8212,-5.8195,-5.8358,-5.8379,-5.8509,-5.8306,-5.8309,-5.8311,0,-5.7529,-5.7594,-5.7739,-5.7801,-5.7833,-5.79,-5.7973,-5.8037,-5.8095,-5.8109,-5.816,-5.8159,-5.8248,-5.8192,-5.8315,-5.8255,-5.8295,-5.8316,-5.8321,-5.8331,-5.8269,-5.8373,-5.855,-5.857,-5.834,-5.8338,-5.8336,0,-5.7626,-5.7749,-5.7852,-5.7884,-5.7959,-5.8007,-5.804,-5.8096,-5.8142,-5.8206,-5.8236,-5.8309,-5.835,-5.8406,-5.8426,-5.8383,-5.8548,-5.8494,-5.8563,-5.8563,-5.8598,-5.8596,-5.8785,-5.8623,-5.8623,-5.8622,-5.8622,0,-5.777,-5.7859,-5.7896,-5.7959,-5.8059,-5.8076,-5.8174,-5.8204,-5.8254,-5.8324,-5.8319,-5.8384,-5.8405,-5.8474,-5.8489,-5.8589,-5.8607,-5.8621,-5.8625,-5.8623,-5.8621,-5.8649,-5.8641,-5.8627,-5.8626,-5.8625,-5.8624,0,-5.7894,-5.7923,-5.8034,-5.8097,-5.8115,-5.8186,-5.8239,-5.83,-5.8325,-5.8413,-5.8434,-5.8473,-5.8554,-5.8579,-5.8676,-5.8686,-5.8804,-5.8798,-5.8785,-5.8785,-5.8853,-5.8847,-5.9068,-5.9099,-5.8915,-5.8917,-5.8918,0,-5.7985,-5.8054,-5.8125,-5.8171,-5.8207,-5.8282,-5.833,-5.8349,-5.8399,-5.8472,-5.8525,-5.8605,-5.8671,-5.88,-5.8837,-5.8911,-5.8908,-5.8981,-5.8919,-5.8916,-5.8911,-5.8907,-5.8915,-5.8992,-5.8994,-5.8996,-5.8997,0,-5.8144,-5.8155,-5.8225,-5.8301,-5.8358,-5.8418,-5.8476,-5.8514,-5.8542,-5.8599,-5.8682,-5.8733,-5.8833,-5.8913,-5.899,-5.9023,-5.9016,-5.9016,-5.9036,-5.9035,-5.9025,-5.9033,-5.8817,-5.9011,-5.901,-5.9009,-5.9008,-5.9007,-5.8255,-5.8317,-5.8377,-5.8455,-5.8501,-5.8556,-5.8617,-5.865,-5.872,-5.8804,-5.8811,-5.8901,-5.896,-5.9062,-5.91,-5.9171,-5.915,-5.9179,-5.9186,-5.9193,-5.92,-5.9013,-5.9184,-5.9184,-5.9184,-5.9183,-5.9183,0,-5.8415,-5.8454,-5.8526,-5.8608,-5.867,-5.8658,-5.8722,-5.8774,-5.8854,-5.891,-5.8975,-5.9072,-5.915,-5.9193,-5.9271,-5.932,-5.9319,-5.934,-5.9337,-5.9345,-5.9213,-5.9188,-5.934,-5.934,-5.934,-5.934,-5.934,-5.934,-5.8506,-5.8609,-5.8628,-5.8754,-5.8792,-5.8882,-5.8919,-5.897,-5.9015,-5.9123,-5.9189,-5.9217,-5.9268,-5.935,-5.9422,-5.9432,-5.9462,-5.9486,-5.9495,-5.937,-5.9354,-5.9339,-5.9316,-5.9492,-5.9492,-5.9621,-5.9622,-5.9623]}]]